Wind_Speed
30 29 27 26 25 24 22 20 20 20 18 17 16 16 19 21 22 22 17 14 12 11 10 10 11 11 10 10 13 15 15 15 15 17 18 20 21 21 22 25 27 31 32 35 38
32 30 29 28 27 26 24 22 21 20 20 18 18 20 21 23 24 24 18 14 13 11 11 11 11 11 10 12 14 14 14 15 16 18 20 21 21 20 23 27 29 31 36 40 43
33 32 30 28 28 28 26 24 22 21 20 20 20 22 25 24 23 23 18 13 13 12 12 11 11 10 11 12 13 12 13 15 17 18 19 19 21 23 27 29 30 33 37 42 44
34 34 33 31 29 29 27 25 23 22 21 21 24 25 27 23 24 22 17 12 12 12 12 10 9 9 12 12 10 11 14 16 17 17 18 18 21 25 26 29 32 36 37 37 37
34 34 34 32 30 29 28 26 26 25 25 25 26 26 26 25 24 22 17 13 12 12 11 9 8 10 11 8 8 11 15 16 15 16 17 18 22 25 28 32 35 34 31 36 42
36 35 35 33 31 30 30 28 28 27 27 26 27 24 25 24 24 20 17 13 12 12 10 8 8 10 8 6 9 13 16 15 14 14 16 20 23 26 31 34 32 30 36 36 38
38 37 36 35 33 32 32 29 28 27 27 26 25 25 25 26 24 20 16 13 12 11 10 8 9 7 4 6 10 15 17 16 13 12 16 19 23 29 33 26 26 35 34 33 32
41 39 38 36 34 33 32 31 28 28 27 27 25 26 28 27 24 20 15 12 13 10 9 9 7 4 3 5 9 15 16 14 11 13 16 18 22 30 28 21 30 37 34 32 32
44 42 40 38 36 34 31 32 30 28 26 28 29 30 30 26 23 19 16 13 13 10 10 9 5 4 2 3 8 11 14 10 9 12 15 16 21 31 33 27 30 33 35 27 27
47 45 43 41 38 36 32 33 31 30 30 31 29 29 27 24 21 19 15 14 13 11 11 8 5 4 2 2 7 8 9 8 8 12 12 15 23 32 36 33 29 31 35 26 24
51 48 46 45 43 39 35 35 36 34 31 32 29 27 25 22 20 17 15 14 13 13 11 7 7 6 4 4 7 7 7 9 9 12 10 17 23 28 32 34 34 34 33 27 24
54 52 51 49 47 43 41 38 37 36 36 34 31 26 24 21 17 17 16 15 14 13 11 9 9 7 5 3 6 5 4 8 8 9 10 15 20 25 31 35 38 44 36 34 20
61 56 55 52 51 48 46 43 39 39 39 35 32 28 23 19 17 17 17 16 16 15 11 12 11 9 5 2 4 5 4 7 8 7 10 13 16 19 25 30 33 39 46 38 29
62 63 61 60 57 54 49 47 43 42 41 35 32 27 22 19 18 19 19 17 17 14 13 14 12 8 5 2 4 6 6 8 8 5 9 10 12 13 18 24 28 33 38 43 41
60 59 63 61 62 59 57 54 45 42 42 34 29 25 22 20 18 20 20 19 18 16 15 14 13 9 5 3 2 4 7 8 8 5 7 6 7 10 12 18 25 26 31 35 39
55 59 60 59 58 57 53 50 47 43 41 32 28 24 22 22 23 22 22 21 20 17 18 17 16 12 7 4 2 4 5 7 8 4 9 8 3 5 8 13 18 22 25 31 36
57 53 52 59 54 54 53 52 49 47 33 33 30 25 24 25 26 25 23 23 20 19 19 20 18 14 9 7 4 5 5 4 7 7 7 7 5 4 2 8 11 16 20 25 29
54 57 53 53 51 53 54 52 49 40 34 34 29 28 25 27 28 26 25 24 22 21 22 22 20 16 12 9 7 6 5 3 6 9 8 9 8 6 2 4 7 10 13 16 21
50 53 55 51 58 52 52 50 44 36 34 34 33 29 27 27 28 27 26 25 24 24 25 24 22 18 14 11 6 5 4 3 5 8 9 10 11 9 8 7 8 11 12 10 12
49 52 53 60 63 55 53 50 42 36 34 34 33 31 30 29 28 27 28 26 25 26 26 26 24 21 16 13 8 5 3 5 5 7 9 11 12 11 12 12 12 12 13 12 11
54 52 52 54 55 57 55 49 40 36 36 36 34 33 31 34 31 29 28 26 26 27 28 27 26 23 19 16 11 9 7 8 7 7 10 11 13 12 13 15 16 15 15 15 14
57 58 54 54 56 59 55 47 40 38 38 37 35 35 36 32 32 32 29 29 29 30 31 28 28 25 23 19 15 14 10 7 6 8 9 9 11 12 16 15 17 17 16 17 18
61 60 60 57 56 56 50 46 41 41 39 38 37 38 38 38 35 31 30 30 31 32 34 32 31 29 25 22 19 15 11 7 4 2 3 5 8 8 11 15 16 16 15 17 18
63 60 61 63 60 55 47 43 41 41 39 39 39 39 40 38 35 33 32 32 33 34 35 33 30 30 28 23 22 18 14 11 8 5 2 2 4 6 10 15 17 16 14 17 18
61 65 62 59 57 55 47 45 42 44 43 40 40 41 39 38 37 36 34 34 34 35 36 35 32 31 31 28 24 22 19 15 13 10 7 4 2 3 5 10 12 15 13 13 14
65 67 67 64 60 56 49 44 42 43 43 43 37 38 39 38 37 35 34 35 35 35 37 37 36 33 33 31 30 27 23 20 16 12 10 9 10 8 6 10 12 14 12 13 17
63 61 68 65 63 60 50 47 43 43 42 42 40 43 42 39 39 39 40 41 39 38 39 39 37 36 34 34 34 33 24 22 19 16 14 13 13 15 9 7 13 15 17 16 16
Wind_Direction
247 250 252 253 253 253 257 260 264 264 268 277 283 304 324 324 329 329 319 312 306 295 288 299 304 293 282 276 284 289 296 298 301 300 297 303 313 315 308 304 299 297 294 290 287
249 249 250 252 254 255 257 259 261 263 268 272 282 297 315 320 318 325 318 307 301 295 295 300 297 289 281 279 286 295 304 308 306 305 313 322 324 316 307 304 302 300 302 300 296
249 249 250 251 254 257 259 259 260 262 266 272 280 296 310 312 315 318 312 303 297 289 291 294 292 284 278 286 295 305 310 313 310 318 329 328 326 317 309 308 307 305 298 296 294
246 249 249 250 252 255 256 258 260 261 263 268 281 294 304 305 313 313 306 296 289 285 288 289 280 272 279 292 305 316 317 315 322 331 326 331 319 315 312 307 307 309 302 298 304
243 246 248 249 249 251 254 255 257 258 264 273 283 293 298 299 308 309 303 290 281 285 286 283 270 275 288 304 322 320 316 320 329 328 330 324 326 318 315 313 317 315 314 318 316
241 243 246 247 248 249 251 253 257 260 265 273 280 286 291 301 306 303 297 281 279 281 276 267 263 277 296 319 320 315 314 322 331 333 329 334 328 325 322 324 325 337 329 322 320
240 241 243 245 246 247 250 252 255 259 263 268 274 280 289 301 303 300 291 277 271 268 265 249 262 285 301 318 319 316 326 329 339 339 336 340 337 337 330 338 351 351 341 325 326
239 240 241 242 244 245 248 251 254 258 261 265 270 279 291 296 296 293 280 268 263 259 244 246 262 267 290 318 339 329 337 339 345 347 349 352 346 360 356 357 360 356 352 339 330
237 239 240 240 241 242 245 252 254 255 260 268 278 282 287 290 291 286 270 259 255 243 237 246 248 234 270 315 7 352 342 353 12 3 360 355 3 10 10 357 354 352 10 351 343
235 236 237 241 237 239 243 251 251 257 265 271 280 285 282 284 285 276 259 249 245 232 236 240 216 216 207 14 29 11 5 25 32 18 13 8 16 25 28 24 11 0 14 3 355
234 235 236 236 237 238 241 251 256 260 268 271 276 279 279 279 278 258 244 244 235 227 232 225 205 200 207 65 51 40 38 51 56 32 35 24 23 37 37 35 26 17 14 23 20
233 234 234 234 235 240 245 251 258 261 267 272 270 274 275 275 263 243 235 233 227 228 226 210 203 199 205 93 63 49 47 73 72 60 59 30 31 38 46 44 41 40 34 28 30
232 234 234 235 236 239 246 251 257 263 267 270 266 267 266 265 247 235 228 222 222 223 214 204 198 196 213 117 71 68 76 85 71 65 96 42 30 29 44 44 41 41 48 44 32
230 231 232 235 237 240 245 252 257 260 266 264 260 259 260 251 234 228 221 218 220 219 210 204 195 190 218 127 74 72 85 91 79 76 99 55 39 25 43 40 38 47 49 53 54
229 231 236 239 239 243 250 250 252 258 263 259 256 255 247 238 224 221 216 216 217 215 208 200 189 181 191 141 105 93 83 95 94 90 93 62 38 27 30 39 40 45 43 48 53
225 229 234 238 238 242 247 244 248 254 256 253 251 250 238 225 217 217 213 215 214 210 204 195 179 176 167 169 112 63 74 98 105 117 103 69 29 34 27 29 38 41 43 47 49
220 228 231 231 230 239 241 243 248 246 247 248 247 244 231 219 214 214 215 216 213 210 202 195 179 174 157 142 121 73 43 90 106 98 106 97 88 66 12 27 36 38 36 43 46
228 222 223 228 234 235 238 241 239 240 241 243 239 236 225 218 214 210 214 215 212 207 203 195 184 174 164 153 140 92 61 62 104 104 100 93 89 83 52 30 30 31 33 31 35
212 221 222 224 234 235 233 234 235 237 237 234 231 227 222 218 215 211 211 210 210 205 201 196 188 179 172 161 153 102 93 47 73 86 82 66 62 64 56 21 356 354 6 14 22
210 219 223 228 234 232 232 233 232 232 231 228 224 222 216 214 211 208 208 210 206 204 203 198 194 183 177 166 159 162 125 77 74 72 73 66 60 55 45 46 40 29 16 3 1
214 212 217 222 221 227 231 230 230 229 225 221 218 216 215 216 211 207 211 210 206 203 202 200 195 188 181 173 160 162 132 102 88 74 72 59 57 48 40 28 19 23 22 26 26
213 211 213 216 219 225 228 227 225 223 220 217 215 213 211 209 211 213 210 206 205 204 201 206 201 196 190 182 172 164 153 135 105 94 75 46 45 52 43 33 27 23 16 10 11
210 212 212 215 220 224 224 225 221 220 216 216 214 213 213 215 216 211 211 208 206 204 206 206 204 204 197 193 190 190 190 189 177 135 112 59 15 23 30 28 29 23 27 16 6
213 212 211 215 218 220 219 219 216 219 218 220 215 212 214 214 213 214 214 210 209 207 208 208 207 208 206 206 202 201 204 216 222 233 211 139 360 4 7 11 13 15 24 12 10
216 212 211 213 217 217 215 214 214 218 220 221 217 212 214 215 216 215 215 214 213 210 209 212 215 215 213 214 214 210 216 223 231 237 263 278 275 302 342 348 353 358 356 3 4
214 212 212 215 219 220 220 217 217 220 224 222 220 217 217 217 218 216 218 218 217 214 213 211 214 220 219 221 222 223 222 230 235 245 260 284 290 284 304 324 330 341 342 346 348
212 210 211 217 217 218 218 217 218 219 223 223 215 216 214 216 217 216 215 214 212 214 214 215 217 221 222 225 228 228 230 236 243 247 263 276 284 280 269 283 313 326 330 328 339
Height
5816 5818 5819 5821 5822 5822 5823 5824 5825 5826 5826 5826 5825 5824 5823 5822 5820 5818 5815 5814 5812 5811 5810 5809 5808 5806 5805 5804 5803 5800 5798 5795 5793 5791 5789 5786 5783 5780 5776 5773 5769 5764 5760 5755 5751
5810 5812 5814 5816 5818 5819 5819 5820 5821 5822 5823 5823 5822 5821 5820 5819 5818 5815 5813 5811 5810 5809 5808 5806 5805 5804 5802 5801 5799 5797 5794 5792 5791 5788 5785 5783 5779 5776 5772 5767 5762 5756 5750 5744 5739
5804 5806 5808 5811 5813 5815 5816 5816 5817 5818 5818 5819 5818 5818 5817 5816 5815 5812 5810 5808 5807 5806 5805 5803 5802 5801 5800 5799 5797 5794 5793 5791 5788 5785 5782 5779 5775 5771 5766 5761 5755 5750 5743 5735 5728
5797 5800 5803 5805 5808 5810 5811 5812 5812 5814 5814 5814 5814 5815 5814 5813 5813 5809 5807 5805 5804 5804 5803 5801 5800 5799 5798 5797 5795 5793 5791 5788 5785 5783 5780 5777 5772 5767 5761 5755 5749 5741 5732 5725 5719
5790 5794 5797 5799 5802 5805 5806 5807 5808 5809 5810 5810 5811 5810 5810 5810 5808 5806 5804 5802 5802 5801 5800 5799 5798 5797 5796 5795 5794 5791 5788 5786 5783 5780 5777 5773 5768 5762 5755 5748 5740 5732 5723 5717 5709
5783 5786 5790 5792 5795 5799 5801 5802 5803 5804 5805 5806 5806 5806 5806 5806 5803 5802 5801 5800 5798 5798 5797 5796 5796 5795 5795 5794 5792 5789 5786 5783 5781 5777 5774 5770 5764 5758 5751 5742 5733 5726 5718 5710 5702
5775 5779 5783 5786 5789 5792 5795 5796 5797 5799 5799 5800 5801 5801 5801 5801 5799 5798 5798 5797 5796 5795 5795 5794 5794 5794 5794 5793 5790 5787 5784 5781 5778 5776 5772 5767 5762 5755 5745 5736 5729 5722 5713 5706 5698
5767 5772 5775 5778 5782 5785 5789 5791 5792 5793 5794 5795 5795 5796 5796 5796 5795 5795 5794 5793 5793 5792 5793 5792 5792 5792 5792 5791 5789 5785 5782 5779 5777 5774 5770 5766 5761 5753 5741 5734 5726 5720 5710 5702 5694
5759 5764 5767 5771 5775 5778 5781 5785 5786 5788 5789 5790 5790 5791 5791 5791 5790 5790 5790 5790 5790 5790 5790 5790 5791 5791 5791 5789 5786 5783 5780 5777 5774 5772 5769 5765 5760 5750 5740 5732 5725 5719 5708 5701 5692
5751 5755 5758 5765 5767 5771 5774 5778 5779 5781 5783 5783 5784 5786 5785 5786 5785 5786 5786 5786 5787 5787 5788 5789 5789 5789 5788 5787 5785 5781 5778 5775 5773 5772 5768 5765 5758 5750 5740 5732 5725 5718 5709 5699 5693
5741 5745 5750 5755 5760 5763 5767 5771 5775 5776 5776 5778 5779 5779 5779 5780 5780 5781 5781 5783 5784 5785 5786 5787 5788 5787 5787 5785 5783 5780 5777 5773 5771 5770 5768 5764 5758 5751 5743 5736 5728 5720 5710 5700 5695
5731 5736 5741 5746 5750 5755 5759 5762 5765 5769 5769 5771 5772 5773 5774 5774 5775 5776 5778 5780 5781 5782 5784 5785 5785 5785 5784 5783 5781 5779 5776 5773 5769 5766 5767 5764 5760 5754 5746 5740 5733 5724 5714 5705 5698
5718 5725 5731 5736 5741 5746 5751 5754 5756 5760 5762 5764 5765 5766 5767 5769 5770 5772 5774 5776 5777 5779 5781 5782 5783 5783 5783 5782 5781 5779 5776 5772 5770 5767 5764 5764 5761 5756 5750 5744 5737 5729 5721 5711 5704
5705 5712 5719 5725 5732 5737 5742 5745 5748 5751 5752 5757 5758 5760 5761 5763 5765 5768 5770 5773 5774 5776 5778 5779 5781 5782 5782 5781 5780 5778 5775 5772 5770 5768 5765 5763 5762 5758 5753 5748 5742 5734 5726 5719 5712
5693 5701 5706 5713 5721 5728 5732 5735 5739 5744 5743 5749 5752 5753 5755 5759 5762 5764 5766 5768 5771 5773 5776 5779 5779 5780 5780 5779 5779 5778 5775 5772 5769 5767 5765 5763 5763 5759 5756 5751 5746 5740 5732 5725 5718
5681 5688 5694 5702 5709 5716 5721 5726 5731 5735 5735 5742 5745 5746 5749 5752 5755 5758 5762 5764 5767 5769 5771 5774 5777 5778 5777 5778 5778 5777 5775 5772 5769 5766 5763 5762 5762 5760 5757 5754 5750 5744 5739 5733 5726
5670 5676 5683 5688 5698 5704 5709 5716 5721 5721 5734 5736 5738 5741 5743 5746 5749 5752 5756 5760 5764 5766 5768 5772 5774 5775 5775 5776 5776 5776 5775 5773 5770 5767 5764 5762 5761 5759 5757 5755 5752 5748 5744 5740 5735
5658 5665 5672 5678 5685 5693 5699 5706 5708 5717 5724 5727 5730 5734 5737 5740 5743 5746 5751 5755 5759 5762 5765 5768 5772 5772 5773 5774 5775 5774 5774 5772 5769 5766 5765 5762 5761 5759 5757 5755 5752 5749 5747 5743 5739
5647 5653 5659 5667 5674 5681 5689 5693 5701 5711 5715 5720 5723 5727 5731 5735 5739 5741 5745 5750 5754 5757 5762 5764 5769 5769 5771 5771 5774 5773 5772 5773 5769 5766 5764 5763 5762 5760 5758 5756 5754 5751 5749 5746 5743
5637 5643 5649 5656 5664 5671 5677 5685 5693 5701 5707 5711 5715 5721 5725 5730 5733 5736 5739 5745 5749 5753 5757 5761 5765 5766 5768 5770 5771 5772 5772 5771 5769 5767 5763 5762 5761 5761 5760 5758 5755 5753 5751 5748 5746
5623 5631 5638 5645 5652 5659 5665 5678 5686 5693 5698 5702 5708 5713 5718 5725 5727 5730 5735 5740 5744 5749 5753 5756 5761 5764 5765 5766 5768 5769 5769 5768 5767 5767 5763 5763 5762 5760 5759 5757 5755 5753 5751 5749 5747
5610 5619 5627 5633 5641 5647 5658 5671 5679 5685 5689 5695 5701 5706 5712 5716 5721 5725 5730 5734 5739 5744 5748 5752 5755 5758 5761 5763 5764 5766 5767 5766 5766 5765 5762 5762 5763 5760 5758 5757 5755 5754 5752 5750 5748
5598 5607 5615 5623 5631 5640 5653 5662 5670 5676 5681 5687 5692 5698 5705 5710 5716 5720 5724 5728 5733 5738 5742 5746 5749 5753 5756 5759 5760 5762 5764 5765 5765 5763 5761 5760 5761 5759 5758 5757 5755 5753 5751 5749 5748
5584 5593 5602 5611 5621 5632 5644 5653 5661 5668 5674 5680 5685 5691 5697 5703 5710 5715 5718 5722 5726 5731 5736 5740 5744 5748 5752 5755 5755 5757 5759 5761 5761 5762 5761 5759 5757 5757 5755 5754 5754 5753 5751 5749 5748
5569 5580 5595 5602 5612 5624 5634 5645 5651 5658 5664 5672 5678 5684 5691 5697 5703 5708 5713 5717 5720 5725 5730 5735 5739 5742 5745 5749 5751 5752 5754 5755 5757 5757 5759 5758 5756 5753 5752 5752 5750 5749 5749 5747 5745
5559 5571 5585 5593 5603 5614 5626 5637 5644 5651 5657 5665 5675 5681 5685 5691 5697 5703 5707 5711 5715 5720 5724 5728 5732 5736 5738 5742 5744 5746 5748 5750 5751 5753 5753 5754 5754 5753 5750 5750 5748 5747 5744 5743 5742
5547 5562 5573 5582 5592 5603 5619 5630 5637 5643 5649 5657 5665 5669 5676 5683 5688 5694 5696 5699 5705 5711 5715 5720 5725 5728 5731 5734 5737 5740 5744 5745 5747 5747 5749 5750 5750 5751 5745 5743 5745 5745 5744 5741 5738